Total_Precipitation_Accumulation
0.65 0.66 0.69 0.64 0.60 0.59 0.62 0.77 1.00 0.84 0.42 0.22 0.20 0.23 0.28 0.35 0.43 0.48 0.47 0.56 0.62 0.68 0.78 0.89 0.95 1.01 1.17 1.51 2.24 3.13 3.84 4.00 3.70 3.18 2.93 3.15 3.50 3.98
0.71 0.73 0.74 0.71 0.68 0.66 0.67 0.69 0.84 1.00 0.73 0.29 0.24 0.25 0.32 0.37 0.45 0.49 0.47 0.54 0.60 0.66 0.70 0.76 0.87 0.99 1.11 1.26 1.58 2.28 3.08 3.73 3.98 3.90 3.66 3.57 3.76 4.06
0.83 0.84 0.79 0.75 0.79 0.76 0.75 0.74 0.75 0.88 0.90 0.40 0.26 0.29 0.40 0.49 0.48 0.48 0.47 0.49 0.51 0.61 0.67 0.70 0.75 0.85 0.99 1.13 1.30 1.68 2.37 3.04 3.64 4.02 4.21 4.13 4.06 4.07
0.91 0.91 0.87 0.85 0.85 0.84 0.89 0.87 0.79 0.78 0.88 0.66 0.36 0.33 0.39 0.48 0.52 0.53 0.51 0.50 0.48 0.56 0.62 0.69 0.75 0.81 0.89 1.01 1.16 1.34 1.72 2.27 2.86 3.44 3.84 3.95 3.97 4.17
0.93 0.98 0.97 0.97 0.97 0.94 0.95 0.97 0.92 0.84 0.85 0.85 0.57 0.41 0.43 0.49 0.59 0.60 0.58 0.60 0.57 0.60 0.63 0.69 0.78 0.84 0.88 0.96 1.09 1.22 1.35 1.60 2.02 2.68 3.35 3.64 3.66 3.72
0.96 1.00 1.04 1.08 1.10 1.11 1.18 1.16 1.14 1.13 1.06 1.03 0.83 0.63 0.59 0.59 0.70 0.72 0.67 0.65 0.68 0.66 0.69 0.68 0.74 0.81 0.85 0.87 0.91 0.98 1.16 1.47 1.80 2.18 2.73 3.19 3.30 3.31
1.03 1.02 1.03 1.12 1.26 1.43 1.57 1.51 1.41 1.44 1.38 1.32 1.14 0.92 0.78 0.79 0.88 0.82 0.83 0.74 0.76 0.77 0.76 0.71 0.69 0.68 0.74 0.84 0.94 1.00 1.08 1.26 1.51 1.84 2.27 2.73 3.04 3.11
0.99 0.92 0.91 0.97 1.05 1.20 1.39 1.42 1.42 1.57 1.65 1.57 1.40 1.19 0.92 0.83 0.93 1.07 1.14 1.15 1.04 0.85 0.87 0.86 0.81 0.81 0.79 0.81 0.95 1.02 1.12 1.26 1.39 1.59 1.94 2.30 2.68 3.02
0.81 0.79 0.77 0.79 0.89 0.85 0.99 1.07 1.12 1.23 1.41 1.56 1.61 1.32 1.09 1.00 1.20 1.39 1.40 1.36 1.10 0.92 1.07 1.17 1.04 0.99 0.92 0.95 1.05 1.02 1.10 1.22 1.36 1.49 1.64 1.93 2.29 2.69
0.77 0.75 0.74 0.72 0.78 0.94 1.02 0.98 0.89 0.89 1.07 1.28 1.47 1.37 1.26 1.31 1.58 1.83 1.89 1.88 1.56 1.23 1.21 1.42 1.26 1.20 1.15 1.10 1.12 1.04 1.08 1.13 1.22 1.37 1.55 1.73 1.96 2.29
0.81 0.83 0.82 0.74 0.83 1.04 1.12 1.06 0.90 0.82 0.89 1.14 1.36 1.48 1.57 1.73 1.99 2.31 2.40 2.45 2.24 1.78 1.50 1.53 1.44 1.37 1.36 1.31 1.27 1.21 1.14 1.13 1.13 1.23 1.39 1.58 1.82 2.09
0.84 0.88 1.01 0.98 0.99 1.07 1.11 1.16 1.12 0.88 0.79 0.86 0.96 1.08 1.19 1.36 1.71 1.98 2.16 2.38 2.32 2.16 1.76 1.67 1.66 1.64 1.78 1.50 1.29 1.21 1.16 1.20 1.15 1.10 1.15 1.31 1.57 1.77
0.93 0.95 0.97 1.07 1.06 1.09 1.14 1.14 1.18 1.05 0.95 0.97 0.96 0.93 1.00 1.15 1.35 1.61 1.88 2.14 2.30 2.17 1.77 1.87 2.04 1.90 1.89 1.67 1.38 1.24 1.16 1.10 1.03 1.01 1.04 1.14 1.34 1.54
0.96 0.85 0.91 1.08 1.09 1.14 1.11 1.13 1.18 1.17 1.10 1.07 0.99 0.89 0.90 1.04 1.15 1.35 1.65 1.83 1.95 1.96 1.76 1.95 2.27 2.01 1.96 1.76 1.52 1.38 1.27 1.19 1.07 0.97 0.92 1.10 1.25 1.43
1.06 1.13 1.07 1.10 1.11 1.04 1.02 1.09 1.10 1.06 1.11 1.10 0.95 0.81 0.77 0.90 1.04 1.23 1.47 1.70 1.81 1.83 1.82 1.85 2.06 2.06 2.10 1.95 1.56 1.39 1.41 1.40 1.22 1.08 1.00 0.96 1.00 1.17
1.08 1.17 1.17 1.11 1.09 1.05 1.03 1.01 0.98 1.03 1.09 1.03 0.89 0.79 0.80 0.93 1.10 1.23 1.43 1.62 1.86 1.86 1.80 1.83 2.02 2.28 2.30 1.88 1.65 1.51 1.38 1.49 1.39 1.23 1.12 1.04 0.99 1.00
1.35 1.33 1.26 1.20 1.20 1.11 1.02 0.97 0.96 1.02 1.07 0.95 0.92 0.93 0.96 1.02 1.10 1.17 1.34 1.51 1.71 1.67 1.69 1.85 2.04 2.23 2.36 2.23 2.01 1.65 1.43 1.36 1.34 1.30 1.25 1.19 1.15 1.10
1.40 1.37 1.21 1.10 1.07 1.03 1.04 1.02 0.97 0.93 0.93 0.94 0.97 0.99 1.01 1.04 1.08 1.10 1.23 1.41 1.52 1.50 1.55 1.71 1.96 2.23 2.44 2.55 2.27 1.82 1.54 1.43 1.40 1.38 1.29 1.26 1.27 1.25
1.13 1.06 0.99 0.96 0.97 0.97 0.97 0.98 0.93 0.84 0.87 0.97 1.01 1.02 1.03 1.08 1.12 1.13 1.19 1.31 1.40 1.43 1.51 1.63 1.85 2.09 2.17 2.18 2.28 1.99 1.71 1.55 1.50 1.54 1.45 1.28 1.26 1.28
0.92 0.90 0.91 0.90 0.93 0.96 0.94 0.92 0.89 0.87 0.91 0.95 0.99 1.00 1.04 1.10 1.12 1.09 1.11 1.22 1.30 1.36 1.44 1.54 1.72 1.95 2.08 1.95 2.00 2.04 1.97 1.74 1.57 1.58 1.55 1.44 1.39 1.44
0.82 0.82 0.83 0.88 0.90 0.90 0.88 0.88 0.88 0.88 0.87 0.91 0.95 0.99 1.01 1.08 1.08 1.01 1.03 1.13 1.24 1.28 1.32 1.32 1.44 1.71 2.00 2.06 1.99 1.87 1.94 2.04 1.78 1.59 1.54 1.57 1.57 1.56
0.75 0.77 0.78 0.82 0.88 0.92 0.89 0.87 0.88 0.85 0.85 0.89 0.90 0.91 0.94 1.00 1.02 0.99 1.02 1.09 1.11 1.14 1.20 1.24 1.32 1.57 1.93 2.12 2.01 1.81 1.82 2.01 2.18 1.98 1.69 1.55 1.66 1.78
0.78 0.77 0.76 0.78 0.83 0.88 0.92 0.91 0.87 0.81 0.79 0.84 0.85 0.84 0.87 0.93 0.92 0.95 0.98 1.01 1.05 1.08 1.15 1.25 1.31 1.48 1.75 1.92 2.02 1.93 1.81 1.81 1.92 2.03 2.11 1.83 1.48 1.40